Stündliche Wetter Abbakumovo

Heute, 4 März, Donnerstag

Zeit Temperatur Niederschläge Wind Luftdruck Luftfeuchtigkeit
00:00 -3°C° 0 mm 6 m/S 736 mmHg 86%
01:00 -3°C° 0 mm 6 m/S 735 mmHg 86%
02:00 -3°C° 0 mm 6 m/S 734 mmHg 85%
03:00 -3°C° 0 mm 6 m/S 734 mmHg 86%
04:00 -4°C° 0 mm 6 m/S 733 mmHg 87%
05:00 -4°C° 0 mm 6 m/S 732 mmHg 89%
06:00 -4°C° 0 mm 6 m/S 732 mmHg 89%
07:00 -2°C° 0 mm 5 m/S 732 mmHg 90%
08:00 -2°C° 0 mm 5 m/S 731 mmHg 91%
09:00 -2°C° 0.2 mm 5 m/S 731 mmHg 93%
10:00 -2°C° 0.2 mm 4 m/S 731 mmHg 96%
11:00 -2°C° 0.2 mm 4 m/S 731 mmHg 98%
12:00 -2°C° 0.6 mm 4 m/S 731 mmHg 97%
13:00 -2°C° 0.6 mm 4 m/S 731 mmHg 97%
14:00 -3°C° 0.6 mm 4 m/S 731 mmHg 96%
15:00 -2°C° 0.4 mm 3 m/S 731 mmHg 94%
16:00 -3°C° 0.4 mm 2 m/S 731 mmHg 92%
17:00 -3°C° 0.4 mm 2 m/S 731 mmHg 89%
18:00 -4°C° 0 mm 2 m/S 731 mmHg 89%
19:00 -5°C° 0 mm 2 m/S 731 mmHg 88%
20:00 -5°C° 0 mm 2 m/S 731 mmHg 88%
21:00 -6°C° 0 mm 2 m/S 731 mmHg 88%
22:00 -6°C° 0 mm 2 m/S 732 mmHg 88%
23:00 -7°C° 0 mm 2 m/S 732 mmHg 88%

Morgen, 5 März, Freitag

Zeit Temperatur Niederschläge Wind Luftdruck Luftfeuchtigkeit
00:00 -7°C° 0 mm 2 m/S 732 mmHg 88%
01:00 -8°C° 0 mm 2 m/S 733 mmHg 89%
02:00 -8°C° 0 mm 2 m/S 733 mmHg 89%
03:00 -8°C° 0 mm 2 m/S 733 mmHg 91%
04:00 -7°C° 0 mm 2 m/S 733 mmHg 92%
05:00 -8°C° 0 mm 3 m/S 734 mmHg 94%
06:00 -8°C° 0 mm 3 m/S 734 mmHg 94%
07:00 -9°C° 0 mm 3 m/S 735 mmHg 93%
08:00 -9°C° 0 mm 3 m/S 735 mmHg 93%
09:00 -8°C° 0 mm 3 m/S 735 mmHg 88%
10:00 -7°C° 0 mm 3 m/S 736 mmHg 83%
11:00 -6°C° 0 mm 3 m/S 736 mmHg 79%
12:00 -6°C° 0 mm 3 m/S 736 mmHg 76%
13:00 -4°C° 0 mm 2 m/S 737 mmHg 73%
14:00 -4°C° 0 mm 2 m/S 737 mmHg 70%
15:00 -5°C° 0 mm 2 m/S 737 mmHg 74%
16:00 -4°C° 0 mm 1 m/S 737 mmHg 77%
17:00 -4°C° 0 mm 1 m/S 737 mmHg 80%
18:00 -6°C° 0 mm 1 m/S 738 mmHg 81%
19:00 -6°C° 0 mm 1 m/S 738 mmHg 82%
20:00 -7°C° 0 mm 1 m/S 739 mmHg 83%
21:00 -7°C° 0 mm 1 m/S 739 mmHg 85%
22:00 -7°C° 0 mm 0 m/S 739 mmHg 86%
23:00 -7°C° 0 mm 0 m/S 739 mmHg 87%

übermorgen, 6 März, Samstag

Zeit Temperatur Niederschläge Wind Luftdruck Luftfeuchtigkeit
00:00 -7°C° 0.3 mm 1 m/S 739 mmHg 89%
01:00 -8°C° 0.3 mm 2 m/S 740 mmHg 92%
02:00 -8°C° 0.3 mm 2 m/S 740 mmHg 95%
03:00 -9°C° 0.6 mm 3 m/S 740 mmHg 94%
04:00 -9°C° 0.6 mm 3 m/S 740 mmHg 94%
05:00 -11°C° 0.6 mm 4 m/S 740 mmHg 93%
06:00 -10°C° 0.1 mm 3 m/S 741 mmHg 92%
07:00 -10°C° 0.1 mm 3 m/S 741 mmHg 91%
08:00 -12°C° 0.1 mm 3 m/S 741 mmHg 90%
09:00 -9°C° 0 mm 2 m/S 742 mmHg 84%
10:00 -8°C° 0 mm 2 m/S 742 mmHg 79%
11:00 -8°C° 0 mm 2 m/S 742 mmHg 73%
12:00 -7°C° 0 mm 2 m/S 742 mmHg 72%
13:00 -8°C° 0 mm 3 m/S 742 mmHg 71%
14:00 -7°C° 0 mm 3 m/S 742 mmHg 70%
15:00 -8°C° 0 mm 3 m/S 742 mmHg 74%
16:00 -9°C° 0 mm 3 m/S 741 mmHg 78%
17:00 -9°C° 0 mm 3 m/S 741 mmHg 82%
18:00 -9°C° 0 mm 3 m/S 741 mmHg 82%
19:00 -10°C° 0 mm 4 m/S 741 mmHg 82%
20:00 -10°C° 0 mm 4 m/S 740 mmHg 81%
21:00 -11°C° 0 mm 5 m/S 739 mmHg 81%
22:00 -10°C° 0 mm 6 m/S 738 mmHg 82%
23:00 -11°C° 0 mm 7 m/S 737 mmHg 82%

7 März, Sonntag

Zeit Temperatur Niederschläge Wind Luftdruck Luftfeuchtigkeit
00:00 -11°C° 0.1 mm 7 m/S 736 mmHg 82%
01:00 -10°C° 0.1 mm 8 m/S 735 mmHg 82%
02:00 -10°C° 0.1 mm 8 m/S 734 mmHg 83%
03:00 -10°C° 0.2 mm 8 m/S 733 mmHg 86%
04:00 -9°C° 0.2 mm 9 m/S 731 mmHg 89%
05:00 -9°C° 0.2 mm 9 m/S 730 mmHg 92%
06:00 -9°C° 0.5 mm 9 m/S 729 mmHg 91%
07:00 -9°C° 0.5 mm 9 m/S 728 mmHg 91%
08:00 -8°C° 0.5 mm 9 m/S 727 mmHg 91%
09:00 -8°C° 0.9 mm 9 m/S 727 mmHg 91%
10:00 -7°C° 0.9 mm 8 m/S 726 mmHg 91%
11:00 -6°C° 0.9 mm 7 m/S 726 mmHg 91%
12:00 -7°C° 0.5 mm 7 m/S 726 mmHg 83%
13:00 -7°C° 0.5 mm 7 m/S 726 mmHg 76%
14:00 -7°C° 0.5 mm 8 m/S 725 mmHg 68%
15:00 -8°C° 0 mm 7 m/S 726 mmHg 69%
16:00 -9°C° 0 mm 6 m/S 726 mmHg 70%
17:00 -10°C° 0 mm 5 m/S 727 mmHg 72%
18:00 -9°C° 0.2 mm 4 m/S 727 mmHg 77%
19:00 -10°C° 0.2 mm 4 m/S 727 mmHg 81%
20:00 -10°C° 0.2 mm 4 m/S 727 mmHg 86%
21:00 -10°C° 0.1 mm 4 m/S 727 mmHg 87%
22:00 -11°C° 0.1 mm 5 m/S 727 mmHg 88%
23:00 -11°C° 0.1 mm 6 m/S 727 mmHg 89%

8 März, Montag

Zeit Temperatur Niederschläge Wind Luftdruck Luftfeuchtigkeit
00:00 -12°C° 0.1 mm 6 m/S 727 mmHg 87%
01:00 -12°C° 0.1 mm 6 m/S 728 mmHg 86%
02:00 -14°C° 0.1 mm 6 m/S 729 mmHg 85%
03:00 -14°C° 0 mm 6 m/S 729 mmHg 86%
04:00 -14°C° 0 mm 5 m/S 730 mmHg 86%
05:00 -15°C° 0 mm 5 m/S 731 mmHg 87%
06:00 -15°C° 0 mm 5 m/S 731 mmHg 88%
07:00 -15°C° 0 mm 4 m/S 732 mmHg 88%
08:00 -16°C° 0 mm 4 m/S 733 mmHg 89%
09:00 -14°C° 0 mm 4 m/S 733 mmHg 86%
10:00 -13°C° 0 mm 5 m/S 734 mmHg 84%
11:00 -12°C° 0 mm 5 m/S 735 mmHg 82%
12:00 -12°C° 0 mm 5 m/S 735 mmHg 81%
13:00 -12°C° 0 mm 5 m/S 736 mmHg 79%
14:00 -12°C° 0 mm 5 m/S 736 mmHg 78%
15:00 -11°C° 0 mm 4 m/S 736 mmHg 81%
16:00 -12°C° 0 mm 4 m/S 737 mmHg 84%
17:00 -12°C° 0 mm 4 m/S 737 mmHg 87%
18:00 -14°C° 0 mm 4 m/S 738 mmHg 88%
19:00 -14°C° 0 mm 4 m/S 739 mmHg 90%
20:00 -15°C° 0 mm 4 m/S 740 mmHg 92%
21:00 -16°C° 0 mm 4 m/S 740 mmHg 92%
22:00 -16°C° 0 mm 4 m/S 741 mmHg 92%
23:00 -16°C° 0 mm 3 m/S 741 mmHg 92%

9 März, Dienstag

Zeit Temperatur Niederschläge Wind Luftdruck Luftfeuchtigkeit
00:00 -17°C° 0 mm 3 m/S 742 mmHg 92%
01:00 -18°C° 0 mm 3 m/S 742 mmHg 93%
02:00 -19°C° 0 mm 3 m/S 743 mmHg 94%
03:00 -19°C° 0 mm 3 m/S 743 mmHg 94%
04:00 -21°C° 0 mm 3 m/S 744 mmHg 95%
05:00 -22°C° 0 mm 3 m/S 744 mmHg 95%
06:00 -21°C° 0 mm 3 m/S 745 mmHg 94%
07:00 -21°C° 0 mm 3 m/S 745 mmHg 93%
08:00 -21°C° 0 mm 3 m/S 746 mmHg 91%
09:00 -19°C° 0 mm 3 m/S 746 mmHg 88%
10:00 -17°C° 0 mm 3 m/S 747 mmHg 86%
11:00 -16°C° 0 mm 3 m/S 747 mmHg 83%
12:00 -15°C° 0 mm 3 m/S 748 mmHg 80%
13:00 -14°C° 0 mm 3 m/S 748 mmHg 78%
14:00 -13°C° 0 mm 3 m/S 748 mmHg 75%
15:00 -14°C° 0 mm 3 m/S 748 mmHg 78%
16:00 -14°C° 0 mm 2 m/S 748 mmHg 80%
17:00 -14°C° 0 mm 2 m/S 748 mmHg 83%
18:00 -15°C° 0 mm 2 m/S 749 mmHg 84%
19:00 -14°C° 0 mm 1 m/S 749 mmHg 85%
20:00 -14°C° 0 mm 1 m/S 750 mmHg 85%
21:00 -15°C° 0 mm 1 m/S 750 mmHg 86%
22:00 -15°C° 0 mm 1 m/S 750 mmHg 87%
23:00 -15°C° 0 mm 1 m/S 751 mmHg 88%
Mehr zeigen

Wir brauchen deine Erlaubnis

Meteoprog und unser Service Anbieter werden persönliche Daten aufbewahren, so wie Cookies, Geräte Bezeichnung oder ähnliche Technologien von deinem Gerät und Prozess, so wie Persönliche Daten Inhalte und Werbungen, genauso wie social Media und den Verkehr zu analysieren.

  • Aufbewahrung und/oder Zugang zu deiner Geräte Informationen.

    Cookies, Geräte Bezeichnung oder andere Informationen, können aufbewahrt oder Zugang zu deinem Gerät erhalten, für den Grund, der oben angegeben wird.

  • Personalisierte Werbung und Inhalte, Messungen, Einblick in das Publikum und Produkt Entwicklung.

    Werbungen und Inhalte können personalisiert werden, basierend auf ein Profil. Mehr Daten können besser personalisierte Werbungen und Inhalte hinzufügen. Werbung und Inhalte können gezeigt und gemessen werden. Einblicke über das Publikum, welche die Werbung gesehen haben und den Inhalt, können abgeleitet werden. So wie Daten können genutzt werden, um es zu verbessern oder die Benutzer Erfahrung zu verbessern das System und die Software.

Wenn du “Ich stimme zu” klickst, erlaubst du uns, die Cookies zu benutzen die Geräte Bezeichnung, den Web oder ähnliche Technologien zu benutzen. Deine Settings, können in deinem Gerät bei deinem Browser geändert werden.

Für den bestimmten Zweck, berechtigten Interessen beruhen darauf, mehr als auf den Inhalt. Du kannst mehr darüber in unseren Privaten und Cookie Politik lesen.